Time,TemperatureF,DewpointF,PressureIn,WindDirection,WindDirectionDegrees,WindSpeedMPH,WindSpeedGustMPH,Humidity,HourlyPrecipIn,Conditions,Clouds,dailyrainin,SoftwareType,DateUTC
2013-02-06 00:01:00,30.0,13.0,-100.00,SW,222,14.0,16.0,49,-99.99,,,-99.99,,2013-02-06 07:01:00,
2013-02-06 00:11:00,30.0,13.0,-100.00,SW,222,14.0,16.0,49,-99.99,,,-99.99,,2013-02-06 07:11:00,
2013-02-06 00:21:00,30.0,14.0,-100.00,SW,222,14.0,16.0,50,-99.99,,,-99.99,,2013-02-06 07:21:00,
2013-02-06 00:32:00,30.0,14.0,-100.00,SW,223,13.0,15.0,51,-99.99,,,-99.99,,2013-02-06 07:32:00,
2013-02-06 00:41:00,30.0,14.0,-100.00,SW,223,13.0,15.0,51,-99.99,,,-99.99,,2013-02-06 07:41:00,
2013-02-06 00:52:00,30.0,14.0,-100.00,SW,225,13.0,15.0,50,-99.99,,,-99.99,,2013-02-06 07:52:00,
2013-02-06 01:01:00,30.0,15.0,-100.00,SW,223,14.0,16.0,52,-99.99,,,-99.99,,2013-02-06 08:01:00,
2013-02-06 01:11:00,30.0,15.0,-100.00,SW,223,14.0,16.0,52,-99.99,,,-99.99,,2013-02-06 08:11:00,
2013-02-06 01:21:00,30.0,14.0,-100.00,SW,234,13.0,16.0,51,-99.99,,,-99.99,,2013-02-06 08:21:00,
2013-02-06 01:31:00,31.0,15.0,-100.00,WSW,239,14.0,16.0,50,-99.99,,,-99.99,,2013-02-06 08:31:00,
2013-02-06 01:41:00,31.0,15.0,-100.00,WSW,239,14.0,16.0,50,-99.99,,,-99.99,,2013-02-06 08:41:00,
2013-02-06 01:53:00,30.0,16.0,-100.00,SW,235,14.0,16.0,55,-99.99,,,-99.99,,2013-02-06 08:53:00,
2013-02-06 02:01:00,30.0,17.0,-100.00,SW,235,13.0,15.0,57,-99.99,,,-99.99,,2013-02-06 09:01:00,
2013-02-06 02:11:00,30.0,17.0,-100.00,SW,235,13.0,15.0,57,-99.99,,,-99.99,,2013-02-06 09:11:00,
2013-02-06 02:21:00,30.0,17.0,-100.00,WSW,238,12.0,14.0,57,-99.99,,,-99.99,,2013-02-06 09:21:00,
2013-02-06 02:31:00,30.0,18.0,-100.00,WSW,243,11.0,15.0,60,-99.99,,,-99.99,,2013-02-06 09:31:00,
2013-02-06 02:41:00,30.0,18.0,-100.00,WSW,243,11.0,15.0,60,-99.99,,,-99.99,,2013-02-06 09:41:00,
2013-02-06 02:52:00,30.0,19.0,-100.00,WSW,250,10.0,13.0,62,-99.99,,,-99.99,,2013-02-06 09:52:00,
2013-02-06 03:01:00,29.0,18.0,-100.00,WSW,247,10.0,14.0,64,-99.99,,,-99.99,,2013-02-06 10:01:00,
2013-02-06 03:11:00,29.0,18.0,-100.00,WSW,247,10.0,14.0,64,-99.99,,,-99.99,,2013-02-06 10:11:00,
2013-02-06 03:21:00,29.0,18.0,-100.00,WSW,257,7.0,11.0,64,-99.99,,,-99.99,,2013-02-06 10:21:00,
2013-02-06 03:31:00,29.0,18.0,-100.00,West,269,5.0,6.0,62,-99.99,,,-99.99,,2013-02-06 10:31:00,
2013-02-06 03:41:00,29.0,18.0,-100.00,West,269,5.0,6.0,62,-99.99,,,-99.99,,2013-02-06 10:41:00,
2013-02-06 03:52:00,30.0,19.0,-100.00,SW,219,4.0,5.0,63,-99.99,,,-99.99,,2013-02-06 10:52:00,
2013-02-06 04:01:00,29.0,18.0,-100.00,SSW,208,4.0,6.0,64,-99.99,,,-99.99,,2013-02-06 11:01:00,
2013-02-06 04:11:00,29.0,18.0,-100.00,SSW,208,4.0,6.0,64,-99.99,,,-99.99,,2013-02-06 11:11:00,
2013-02-06 04:22:00,28.0,17.0,-100.00,WNW,292,7.0,12.0,63,-99.99,,,-99.99,,2013-02-06 11:22:00,
2013-02-06 04:32:00,28.0,16.0,-100.00,West,277,7.0,12.0,61,-99.99,,,-99.99,,2013-02-06 11:32:00,
2013-02-06 04:42:00,28.0,16.0,-100.00,West,277,7.0,12.0,61,-99.99,,,-99.99,,2013-02-06 11:42:00,
2013-02-06 04:53:00,28.0,17.0,-100.00,WSW,255,9.0,13.0,62,-99.99,,,-99.99,,2013-02-06 11:53:00,
2013-02-06 05:01:00,28.0,17.0,-100.00,West,269,8.0,15.0,62,-99.99,,,-99.99,,2013-02-06 12:01:00,
2013-02-06 05:12:00,28.0,17.0,-100.00,West,269,8.0,15.0,62,-99.99,,,-99.99,,2013-02-06 12:12:00,
2013-02-06 05:22:00,28.0,19.0,-100.00,WSW,258,8.0,14.0,68,-99.99,,,-99.99,,2013-02-06 12:22:00,
2013-02-06 05:32:00,27.0,18.0,-100.00,WNW,291,2.0,7.0,69,-99.99,,,-99.99,,2013-02-06 12:32:00,
2013-02-06 05:42:00,27.0,18.0,-100.00,WNW,291,2.0,7.0,69,-99.99,,,-99.99,,2013-02-06 12:42:00,
2013-02-06 05:52:00,27.0,17.0,-100.00,WNW,302,6.0,15.0,66,-99.99,,,-99.99,,2013-02-06 12:52:00,
2013-02-06 06:01:00,27.0,16.0,-100.00,NNW,343,11.0,15.0,63,-99.99,,,-99.99,,2013-02-06 13:01:00,
2013-02-06 06:11:00,27.0,16.0,-100.00,NNW,343,11.0,15.0,63,-99.99,,,-99.99,,2013-02-06 13:11:00,
2013-02-06 06:21:00,27.0,16.0,-100.00,NNW,343,11.0,15.0,63,-99.99,,,-99.99,,2013-02-06 13:21:00,
2013-02-06 06:31:00,26.0,15.0,-100.00,NNW,342,13.0,16.0,63,-99.99,,,-99.99,,2013-02-06 13:31:00,
2013-02-06 06:42:00,26.0,15.0,-100.00,NNW,342,13.0,16.0,63,-99.99,,,-99.99,,2013-02-06 13:42:00,
2013-02-06 06:52:00,23.0,16.0,-100.00,NNW,346,14.0,23.0,75,-99.99,,,-99.99,,2013-02-06 13:52:00,
2013-02-06 07:01:00,22.0,16.0,-100.00,North,350,19.0,27.0,77,-99.99,,,-99.99,,2013-02-06 14:01:00,
2013-02-06 07:11:00,22.0,16.0,-100.00,North,350,19.0,27.0,77,-99.99,,,-99.99,,2013-02-06 14:11:00,
2013-02-06 07:21:00,23.0,17.0,-100.00,NNW,340,26.0,33.0,79,-99.99,,,-99.99,,2013-02-06 14:21:00,
2013-02-06 07:31:00,23.0,18.0,-100.00,NNW,334,24.0,30.0,82,-99.99,,,-99.99,,2013-02-06 14:31:00,
2013-02-06 07:41:00,23.0,18.0,-100.00,NNW,334,24.0,30.0,82,-99.99,,,-99.99,,2013-02-06 14:41:00,
2013-02-06 07:52:00,23.0,18.0,-100.00,NNW,330,26.0,33.0,82,-99.99,,,-99.99,,2013-02-06 14:52:00,
2013-02-06 08:01:00,22.0,18.0,-100.00,NNW,334,25.0,32.0,83,-99.99,,,-99.99,,2013-02-06 15:01:00,
2013-02-06 08:11:00,22.0,18.0,-100.00,NNW,334,25.0,32.0,83,-99.99,,,-99.99,,2013-02-06 15:11:00,
2013-02-06 08:21:00,21.0,19.0,-100.00,NNW,332,25.0,31.0,90,-99.99,,,-99.99,,2013-02-06 15:21:00,
2013-02-06 08:31:00,21.0,19.0,-100.00,NNW,332,23.0,29.0,91,-99.99,,,-99.99,,2013-02-06 15:31:00,
2013-02-06 08:41:00,21.0,19.0,-100.00,NNW,332,23.0,29.0,91,-99.99,,,-99.99,,2013-02-06 15:41:00,
2013-02-06 08:52:00,22.0,17.0,-100.00,NNW,335,21.0,27.0,82,-99.99,,,-99.99,,2013-02-06 15:52:00,
2013-02-06 09:01:00,23.0,16.0,-100.00,NNW,336,18.0,25.0,75,-99.99,,,-99.99,,2013-02-06 16:01:00,
2013-02-06 09:11:00,23.0,16.0,-100.00,NNW,336,18.0,25.0,75,-99.99,,,-99.99,,2013-02-06 16:11:00,
2013-02-06 09:21:00,23.0,18.0,-100.00,North,356,10.0,17.0,80,-99.99,,,-99.99,,2013-02-06 16:21:00,
2013-02-06 09:32:00,22.0,18.0,-100.00,North,349,8.0,11.0,83,-99.99,,,-99.99,,2013-02-06 16:32:00,
2013-02-06 09:42:00,22.0,18.0,-100.00,North,349,8.0,11.0,83,-99.99,,,-99.99,,2013-02-06 16:42:00,
2013-02-06 09:52:00,22.0,17.0,-100.00,North,350,9.0,11.0,81,-99.99,,,-99.99,,2013-02-06 16:52:00,
2013-02-06 10:01:00,22.0,16.0,-100.00,North,352,11.0,13.0,78,-99.99,,,-99.99,,2013-02-06 17:01:00,
2013-02-06 10:11:00,22.0,16.0,-100.00,North,352,11.0,13.0,78,-99.99,,,-99.99,,2013-02-06 17:11:00,
2013-02-06 10:21:00,22.0,16.0,-100.00,NNW,345,9.0,12.0,77,-99.99,,,-99.99,,2013-02-06 17:21:00,
2013-02-06 10:32:00,23.0,16.0,-100.00,NNW,341,9.0,11.0,75,-99.99,,,-99.99,,2013-02-06 17:32:00,
2013-02-06 10:41:00,23.0,16.0,-100.00,NNW,341,9.0,11.0,75,-99.99,,,-99.99,,2013-02-06 17:41:00,
2013-02-06 10:52:00,23.0,16.0,-100.00,NNW,338,7.0,10.0,74,-99.99,,,-99.99,,2013-02-06 17:52:00,
2013-02-06 11:01:00,23.0,16.0,-100.00,North,354,5.0,7.0,73,-99.99,,,-99.99,,2013-02-06 18:01:00,
2013-02-06 11:11:00,23.0,16.0,-100.00,North,354,5.0,7.0,73,-99.99,,,-99.99,,2013-02-06 18:11:00,
2013-02-06 11:22:00,24.0,16.0,-100.00,North,6,5.0,9.0,71,-99.99,,,-99.99,,2013-02-06 18:22:00,
2013-02-06 11:32:00,24.0,16.0,-100.00,North,0,7.0,12.0,72,-99.99,,,-99.99,,2013-02-06 18:32:00,
2013-02-06 11:41:00,24.0,16.0,-100.00,North,0,7.0,12.0,72,-99.99,,,-99.99,,2013-02-06 18:41:00,
2013-02-06 11:52:00,23.0,15.0,-100.00,North,359,9.0,14.0,71,-99.99,,,-99.99,,2013-02-06 18:52:00,
2013-02-06 12:01:00,23.0,15.0,-100.00,North,359,10.0,14.0,72,-99.99,,,-99.99,,2013-02-06 19:01:00,
2013-02-06 12:11:00,23.0,15.0,-100.00,North,359,10.0,14.0,72,-99.99,,,-99.99,,2013-02-06 19:11:00,
2013-02-06 12:21:00,23.0,12.0,-100.00,North,359,12.0,18.0,63,-99.99,,,-99.99,,2013-02-06 19:21:00,
2013-02-06 12:31:00,24.0,11.0,-100.00,North,1,14.0,19.0,57,-99.99,,,-99.99,,2013-02-06 19:31:00,
2013-02-06 12:41:00,24.0,11.0,-100.00,North,1,14.0,19.0,57,-99.99,,,-99.99,,2013-02-06 19:41:00,
2013-02-06 12:52:00,24.0,11.0,-100.00,North,356,14.0,20.0,58,-99.99,,,-99.99,,2013-02-06 19:52:00,
2013-02-06 13:01:00,25.0,12.0,-100.00,North,353,13.0,18.0,58,-99.99,,,-99.99,,2013-02-06 20:01:00,
2013-02-06 13:11:00,25.0,12.0,-100.00,North,353,13.0,18.0,58,-99.99,,,-99.99,,2013-02-06 20:11:00,
2013-02-06 13:21:00,26.0,11.0,-100.00,NW,322,10.0,18.0,53,-99.99,,,-99.99,,2013-02-06 20:21:00,
2013-02-06 13:31:00,26.0,11.0,-100.00,NW,323,11.0,17.0,52,-99.99,,,-99.99,,2013-02-06 20:31:00,
2013-02-06 13:41:00,26.0,11.0,-100.00,NW,323,11.0,17.0,52,-99.99,,,-99.99,,2013-02-06 20:41:00,
2013-02-06 13:52:00,26.0,12.0,-100.00,NW,316,14.0,22.0,55,-99.99,,,-99.99,,2013-02-06 20:52:00,
2013-02-06 14:01:00,26.0,12.0,-100.00,NNW,334,12.0,17.0,56,-99.99,,,-99.99,,2013-02-06 21:01:00,
2013-02-06 14:11:00,26.0,12.0,-100.00,NNW,334,12.0,17.0,56,-99.99,,,-99.99,,2013-02-06 21:11:00,
2013-02-06 14:21:00,26.0,12.0,-100.00,NNW,338,11.0,22.0,55,-99.99,,,-99.99,,2013-02-06 21:21:00,
2013-02-06 14:31:00,25.0,13.0,-100.00,NNE,14,10.0,15.0,61,-99.99,,,-99.99,,2013-02-06 21:31:00,
2013-02-06 14:41:00,25.0,13.0,-100.00,NNE,14,10.0,15.0,61,-99.99,,,-99.99,,2013-02-06 21:41:00,
2013-02-06 14:52:00,24.0,13.0,-100.00,North,6,12.0,16.0,61,-99.99,,,-99.99,,2013-02-06 21:52:00,
2013-02-06 15:01:00,23.0,12.0,-100.00,North,9,10.0,14.0,61,-99.99,,,-99.99,,2013-02-06 22:01:00,
2013-02-06 15:11:00,23.0,12.0,-100.00,North,9,10.0,14.0,61,-99.99,,,-99.99,,2013-02-06 22:11:00,
2013-02-06 15:21:00,24.0,13.0,-100.00,North,7,9.0,14.0,63,-99.99,,,-99.99,,2013-02-06 22:21:00,
2013-02-06 15:31:00,24.0,13.0,-100.00,North,2,13.0,17.0,62,-99.99,,,-99.99,,2013-02-06 22:31:00,
2013-02-06 15:41:00,24.0,13.0,-100.00,North,2,13.0,17.0,62,-99.99,,,-99.99,,2013-02-06 22:41:00,
2013-02-06 15:52:00,23.0,14.0,-100.00,North,3,13.0,17.0,69,-99.99,,,-99.99,,2013-02-06 22:52:00,
2013-02-06 16:01:00,23.0,15.0,-100.00,North,2,14.0,19.0,71,-99.99,,,-99.99,,2013-02-06 23:01:00,
2013-02-06 16:11:00,23.0,15.0,-100.00,North,2,14.0,19.0,71,-99.99,,,-99.99,,2013-02-06 23:11:00,
2013-02-06 16:21:00,23.0,15.0,-100.00,North,355,12.0,17.0,71,-99.99,,,-99.99,,2013-02-06 23:21:00,
2013-02-06 16:31:00,25.0,16.0,-100.00,NNW,343,10.0,15.0,67,-99.99,,,-99.99,,2013-02-06 23:31:00,
2013-02-06 16:41:00,25.0,16.0,-100.00,NNW,343,10.0,15.0,67,-99.99,,,-99.99,,2013-02-06 23:41:00,
2013-02-06 16:52:00,24.0,14.0,-100.00,North,354,12.0,15.0,66,-99.99,,,-99.99,,2013-02-06 23:52:00,
2013-02-06 17:01:00,22.0,12.0,-100.00,North,360,12.0,16.0,65,-99.99,,,-99.99,,2013-02-07 00:01:00,
2013-02-06 17:11:00,22.0,12.0,-100.00,North,360,12.0,16.0,65,-99.99,,,-99.99,,2013-02-07 00:11:00,
2013-02-06 17:21:00,22.0,12.0,-100.00,North,4,12.0,17.0,64,-99.99,,,-99.99,,2013-02-07 00:21:00,
2013-02-06 17:31:00,21.0,14.0,-100.00,North,4,13.0,18.0,73,-99.99,,,-99.99,,2013-02-07 00:31:00,
2013-02-06 17:41:00,21.0,14.0,-100.00,North,4,13.0,18.0,73,-99.99,,,-99.99,,2013-02-07 00:41:00,
2013-02-06 17:52:00,21.0,15.0,-100.00,North,3,11.0,14.0,78,-99.99,,,-99.99,,2013-02-07 00:52:00,
2013-02-06 18:01:00,20.0,16.0,-100.00,North,353,12.0,14.0,83,-99.99,,,-99.99,,2013-02-07 01:01:00,
2013-02-06 18:11:00,20.0,16.0,-100.00,North,353,12.0,14.0,83,-99.99,,,-99.99,,2013-02-07 01:11:00,
2013-02-06 18:21:00,19.0,16.0,-100.00,NNW,346,9.0,11.0,88,-99.99,,,-99.99,,2013-02-07 01:21:00,
2013-02-06 18:31:00,19.0,16.0,-100.00,NNW,333,10.0,12.0,89,-99.99,,,-99.99,,2013-02-07 01:31:00,
2013-02-06 18:41:00,19.0,16.0,-100.00,NNW,333,10.0,12.0,89,-99.99,,,-99.99,,2013-02-07 01:41:00,
2013-02-06 18:52:00,18.0,16.0,-100.00,NNW,338,8.0,11.0,90,-99.99,,,-99.99,,2013-02-07 01:52:00,
2013-02-06 19:01:00,18.0,16.0,-100.00,North,2,6.0,7.0,91,-99.99,,,-99.99,,2013-02-07 02:01:00,
2013-02-06 19:11:00,18.0,16.0,-100.00,North,2,6.0,7.0,91,-99.99,,,-99.99,,2013-02-07 02:11:00,
2013-02-06 19:21:00,18.0,17.0,-100.00,North,355,6.0,8.0,94,-99.99,,,-99.99,,2013-02-07 02:21:00,
2013-02-06 19:31:00,18.0,17.0,-100.00,North,352,6.0,7.0,94,-99.99,,,-99.99,,2013-02-07 02:31:00,
2013-02-06 19:41:00,18.0,17.0,-100.00,North,352,6.0,7.0,94,-99.99,,,-99.99,,2013-02-07 02:41:00,
2013-02-06 19:52:00,18.0,17.0,-100.00,North,352,6.0,7.0,94,-99.99,,,-99.99,,2013-02-07 02:52:00,
2013-02-06 20:01:00,19.0,8.0,-100.00,WNW,289,3.0,8.0,61,-99.99,,,-99.99,,2013-02-07 03:01:00,
2013-02-06 20:11:00,19.0,8.0,-100.00,WNW,289,3.0,8.0,61,-99.99,,,-99.99,,2013-02-07 03:11:00,
2013-02-06 20:21:00,19.0,8.0,-100.00,NNE,15,1.0,3.0,61,-99.99,,,-99.99,,2013-02-07 03:21:00,
2013-02-06 20:31:00,18.0,10.0,-100.00,NNE,30,1.0,2.0,71,-99.99,,,-99.99,,2013-02-07 03:31:00,
2013-02-06 20:41:00,18.0,10.0,-100.00,NNE,30,1.0,2.0,71,-99.99,,,-99.99,,2013-02-07 03:41:00,
2013-02-06 20:52:00,19.0,11.0,-100.00,NNW,342,2.0,4.0,72,-99.99,,,-99.99,,2013-02-07 03:52:00,
2013-02-06 21:01:00,18.0,11.0,-100.00,WNW,295,3.0,5.0,72,-99.99,,,-99.99,,2013-02-07 04:01:00,
2013-02-06 21:11:00,18.0,11.0,-100.00,WNW,295,3.0,5.0,72,-99.99,,,-99.99,,2013-02-07 04:11:00,
2013-02-06 21:22:00,19.0,5.0,-100.00,NW,318,2.0,5.0,53,-99.99,,,-99.99,,2013-02-07 04:22:00,
2013-02-06 21:31:00,18.0,9.0,-100.00,NE,49,1.0,5.0,68,-99.99,,,-99.99,,2013-02-07 04:31:00,
2013-02-06 21:41:00,18.0,9.0,-100.00,NE,49,1.0,5.0,68,-99.99,,,-99.99,,2013-02-07 04:41:00,
2013-02-06 21:53:00,18.0,8.0,-100.00,SW,217,4.0,6.0,63,-99.99,,,-99.99,,2013-02-07 04:53:00,
2013-02-06 22:01:00,17.0,10.0,-100.00,SW,219,6.0,8.0,73,-99.99,,,-99.99,,2013-02-07 05:01:00,
2013-02-06 22:11:00,17.0,10.0,-100.00,SW,219,6.0,8.0,73,-99.99,,,-99.99,,2013-02-07 05:11:00,
2013-02-06 22:21:00,17.0,12.0,-100.00,SW,225,9.0,10.0,80,-99.99,,,-99.99,,2013-02-07 05:21:00,
2013-02-06 22:32:00,17.0,13.0,-100.00,SW,218,8.0,9.0,84,-99.99,,,-99.99,,2013-02-07 05:32:00,
2013-02-06 22:42:00,17.0,13.0,-100.00,SW,218,8.0,9.0,84,-99.99,,,-99.99,,2013-02-07 05:42:00,
2013-02-06 22:52:00,17.0,13.0,-100.00,SW,216,8.0,9.0,84,-99.99,,,-99.99,,2013-02-07 05:52:00,
2013-02-06 23:01:00,17.0,12.0,-100.00,SSW,213,7.0,9.0,79,-99.99,,,-99.99,,2013-02-07 06:01:00,
2013-02-06 23:11:00,17.0,12.0,-100.00,SSW,213,7.0,9.0,79,-99.99,,,-99.99,,2013-02-07 06:11:00,
2013-02-06 23:22:00,17.0,13.0,-100.00,SW,228,9.0,11.0,83,-99.99,,,-99.99,,2013-02-07 06:22:00,
2013-02-06 23:31:00,16.0,13.0,-100.00,SW,228,10.0,11.0,87,-99.99,,,-99.99,,2013-02-07 06:31:00,
2013-02-06 23:43:00,16.0,13.0,-100.00,SW,228,10.0,11.0,87,-99.99,,,-99.99,,2013-02-07 06:43:00,
2013-02-06 23:52:00,16.0,13.0,-100.00,SW,231,10.0,11.0,89,-99.99,,,-99.99,,2013-02-07 06:52:00,